date,time,DOY,Ta_1_1_1,RH_1_1_1,LWin_1_1_1,LWout_1_1_1,SWin_1_1_1,SWout_1_1_1,PPFD_1_1_1,SWC_1_1_1,Ts_1_1_1
[yyyy-mm-dd],[HH:MM],[ddd.ddd],[K],[%],[W+1m-2],[W+1m-2],[W+1m-2],[W+1m-2],[µmol+1m-2s-1],[m+3m-3],[K]
2012-09-21,00:30,265.020,279.34655172413795,86.406206896551694,-6.5634482758620694,-5.6906896551724140,1.3500000000000001,-2.7182758620689658,6.20689655172413767E-003,0.32000000000000012,281.04827586206903
2012-09-21,01:00,265.041,279.43333333333339,84.457666666666654,-8.1630000000000020,-8.7366666666666664,1.1556666666666664,-3.4330000000000003,1.36666666666666655E-002,0.32000000000000012,281.07766666666669
2012-09-21,01:30,265.062,279.13633333333343,87.308333333333337,-7.2679999999999998,-6.2560000000000002,0.54799999999999993,-2.4323333333333337,9.00000000000000105E-003,0.32000000000000012,281.09066666666678
2012-09-21,02:00,265.083,279.00866666666673,92.661666666666662,-5.6906666666666670,-6.5423999999999989,0.72399999999999998,-1.6243333333333334,9.00000000000000105E-003,0.32000000000000012,281.09966666666679
2012-09-21,02:30,265.104,278.69900000000001,95.881333333333359,-5.2906666666666657,-3.7686666666666664,0.28033333333333338,-1.1323333333333339,6.66666666666666709E-003,0.32000000000000012,281.10033333333342
2012-09-21,03:00,265.124,278.35166666666669,95.097666666666655,-5.4673333333333343,-3.3563333333333341,0.37133333333333340,-1.5170000000000001,5.33333333333333316E-003,0.32000000000000012,281.10233333333338
2012-09-21,03:30,265.145,278.06300000000010,94.642333333333326,-6.3656666666666677,-2.7409999999999997,3.90000000000000069E-002,-1.4219999999999997,5.66666666666666707E-003,0.32000000000000012,281.08066666666667
2012-09-21,04:00,265.166,277.98433333333338,95.943000000000012,-6.4546666666666699,-2.2133333333333334,-0.15666666666666670,-1.1396666666666666,2.66666666666666658E-003,0.32000000000000012,281.04833333333340
2012-09-21,04:30,265.187,278.19566666666668,97.483333333333334,-6.0243333333333338,-1.9736666666666667,-0.19633333333333342,-0.62400000000000000,8.00000000000000190E-003,0.32000000000000012,281.01666666666677
2012-09-21,05:00,265.208,278.69499999999994,97.936666666666682,-5.7509999999999994,-2.6506666666666665,-1.33333333333333025E-003,-0.62033333333333329,6.33333333333333318E-003,0.32000000000000012,281.01133333333343
2012-09-21,05:30,265.229,278.98300000000000,96.802000000000007,-5.8193333333333328,-2.6803333333333326,1.43333333333333316E-002,-0.91266666666666652,5.80000000000000099E-002,0.32000000000000012,281.04533333333347
2012-09-21,06:00,265.249,279.05866666666668,96.506666666666675,-5.9466666666666681,-3.1949999999999998,0.16500000000000001,4.23333333333333409E-002,3.1313333333333335,0.32000000000000012,281.08633333333341
2012-09-21,06:30,265.270,279.02433333333323,95.997999999999990,-6.0273333333333330,-3.3853333333333331,0.58633333333333337,3.7096666666666676,12.008999999999997,0.32000000000000012,281.12066666666669
2012-09-21,07:00,265.291,279.09566666666666,95.015999999999977,-6.1246666666666680,-3.8133333333333330,3.0026666666666668,19.299666666666667,43.703333333333340,0.32000000000000012,281.13933333333335
2012-09-21,07:30,265.312,279.18833333333333,94.163666666666657,-5.9243333333333332,-5.4500000000000011,12.400000000000000,83.204000000000008,174.09266666666664,0.32000000000000012,281.16766666666666
2012-09-21,08:00,265.333,279.58233333333339,91.248999999999995,-7.0916666666666668,-5.4199999999999999,46.774999999999991,279.03133333333329,582.67633333333333,0.32000000000000012,281.22366666666670
2012-09-21,08:30,265.354,279.82866666666672,86.200000000000017,-6.2919999999999998,-7.7080000000000002,52.395000000000010,328.90199999999999,651.19799999999998,0.32000000000000012,281.32400000000001
2012-09-21,09:00,265.374,279.92433333333338,83.014333333333298,-5.3563333333333327,-8.9833333333333325,48.331666666666671,317.72100000000006,610.87533333333340,0.31133333333333330,281.46500000000003
2012-09-21,09:30,265.395,280.39699999999999,77.346666666666664,-5.6275862068965523,-9999.0,82.628333333333345,540.85400000000004,1030.1666666666667,0.30999999999999989,281.59466666666663
2012-09-21,10:00,265.416,281.11966666666666,72.969999999999999,-6.1865517241379298,-9999.0,75.828999999999994,496.53666666666669,968.13499999999999,0.30999999999999989,281.75166666666678
2012-09-21,10:30,265.437,281.02833333333336,75.069666666666677,-6.8956666666666679,-9.3000000000000007,38.695999999999991,249.41699999999997,487.98033333333336,0.30999999999999989,281.93633333333327
2012-09-21,11:00,265.458,281.03266666666673,76.284000000000034,-6.2651724137931053,-9999.0,53.149333333333324,345.31600000000003,668.73200000000008,0.30999999999999989,282.00800000000004
2012-09-21,11:30,265.479,281.67966666666672,73.616333333333330,-4.7937037037037040,-9999.0,89.023000000000010,583.88600000000008,1137.6213333333333,0.30999999999999989,282.17166666666674
2012-09-21,12:00,265.499,280.89966666666663,78.080666666666659,-5.6413636363636366,-8.5600000000000005,67.670333333333332,456.31599999999986,917.56299999999999,0.31533333333333347,282.38900000000007
2012-09-21,12:30,265.520,281.30233333333331,75.146333333333345,-6.3814814814814831,-9999.0,91.035333333333327,610.67433333333327,1205.5533333333335,0.32000000000000012,282.16933333333333
2012-09-21,13:00,265.541,279.79100000000005,84.760666666666651,-5.7259259259259254,-9999.0,50.308333333333330,337.75566666666674,701.14433333333329,0.32500000000000001,282.19133333333332
2012-09-21,13:30,265.562,280.18766666666670,81.545333333333332,-7.1369999999999987,-9999.0,46.146999999999998,312.70233333333329,647.02766666666685,0.33000000000000002,282.10233333333338
2012-09-21,14:00,265.583,280.73899999999998,78.906000000000006,-7.6620000000000008,-9999.0,31.862999999999996,213.40933333333339,443.45799999999991,0.33000000000000002,282.14966666666658
2012-09-21,14:30,265.604,280.98333333333341,76.602666666666693,-5.5043333333333351,-9999.0,76.885666666666665,483.55933333333337,967.54333333333329,0.33000000000000002,282.17400000000004
2012-09-21,15:00,265.624,281.55333333333340,69.090000000000003,-8.2536666666666658,-9999.0,45.381999999999998,287.21433333333334,578.26333333333321,0.33000000000000002,282.35033333333337
2012-09-21,15:30,265.645,281.67100000000005,70.674000000000007,-8.9086956521739111,-9999.0,42.070333333333330,261.81533333333334,517.01333333333343,0.32800000000000007,282.42966666666672
2012-09-21,16:00,265.666,281.83966666666674,68.827666666666659,-9999.0,-9999.0,19.082333333333331,121.50500000000001,246.77833333333331,0.32000000000000012,282.44799999999998
2012-09-21,16:30,265.687,281.65300000000002,69.430000000000007,-9999.0,-9999.0,11.904333333333332,78.484999999999985,175.72866666666670,0.32000000000000012,282.41766666666666
2012-09-21,17:00,265.708,282.27333333333337,60.675666666666658,-9.6750000000000007,-9999.0,34.888666666666659,156.39866666666668,295.89633333333325,0.32000000000000012,282.33233333333339
2012-09-21,17:30,265.729,282.05933333333337,58.514333333333333,-9999.0,-9999.0,22.055999999999997,78.791666666666671,150.71700000000001,0.32000000000000012,282.24499999999995
2012-09-21,18:00,265.749,281.43033333333335,62.456000000000003,-9999.0,-9999.0,5.6776666666666644,13.249666666666664,36.236666666666672,0.32000000000000012,282.12633333333338
2012-09-21,18:30,265.770,280.88933333333341,67.850333333333353,-9999.0,-9999.0,0.81666666666666676,-3.9540000000000002,1.6833333333333329,0.32000000000000012,281.93533333333329
2012-09-21,19:00,265.791,280.50933333333330,68.420333333333318,-9999.0,-9999.0,0.96866666666666679,-4.2889999999999997,2.23333333333333370E-002,0.32000000000000012,281.70266666666669
2012-09-21,19:30,265.812,280.08466666666669,69.699999999999989,-9999.0,-9999.0,0.99633333333333340,-3.6966666666666672,5.33333333333333316E-003,0.32000000000000012,281.47766666666661
2012-09-21,20:00,265.833,280.24600000000004,68.282666666666685,-9999.0,-9999.0,0.59233333333333349,-2.3133333333333330,5.66666666666666621E-003,0.32000000000000012,281.29066666666671
2012-09-21,20:30,265.854,279.85599999999999,73.058666666666653,-9999.0,-9999.0,8.93333333333333479E-002,-3.2406666666666668,3.66666666666666616E-003,0.32000000000000012,281.15433333333328
2012-09-21,21:00,265.874,279.22833333333335,79.899666666666675,-9.7188888888888911,-9999.0,0.23766666666666669,-3.3659999999999997,6.00000000000000099E-003,0.32000000000000012,281.05300000000000
2012-09-21,21:30,265.895,279.04566666666670,80.536333333333360,-9999.0,-9999.0,0.21466666666666664,-4.2103333333333337,3.99999999999999922E-003,0.31366666666666665,280.96833333333336
2012-09-21,22:00,265.916,278.70266666666669,86.023333333333326,-9999.0,-9999.0,-1.06666666666666923E-002,-4.2920000000000007,1.06666666666666680E-002,0.30999999999999989,280.86033333333336
2012-09-21,22:30,265.937,278.57233333333329,84.654666666666671,-9999.0,-9999.0,0.47700000000000015,-4.2756666666666669,9.66666666666666716E-003,0.30999999999999989,280.73966666666666
2012-09-21,23:00,265.958,278.24166666666673,86.715666666666678,-9999.0,-9999.0,0.16466666666666668,-3.6326666666666667,9.00000000000000105E-003,0.30999999999999989,280.61833333333340
2012-09-21,23:30,265.979,277.87966666666676,89.874333333333354,-9999.0,-9999.0,-0.34833333333333338,-2.3353333333333337,1.36666666666666672E-002,0.30999999999999989,280.51733333333334
2012-09-22,00:00,266.000,278.69666666666666,84.722666666666655,-9.4563636363636352,-9999.0,-0.19866666666666671,-1.6903333333333335,6.00000000000000186E-003,0.30999999999999989,280.46733333333333
